Showing default

TANSAT, 41898

Orbit data source: Space-Track

TANSAT, 41898 is a Chinese payload satellite in SSO that was launched on Wed, 21 Dec 2016 UTC via a CHANG ZHENG 2D launch vehicle from the Jiuquan Satellite Launch Center, China (JSC). Payload-class satellites include a variety of spacecraft equipped with specific instruments for various scientific and technological missions. These include communications satellites like Starlink; space stations such as the ISS; scientific satellites like the Hubble; Earth observation satellites from companies like Planet Labs, Umbra, and HawkEye 360; GPS; miniature CubeSats for education and research; and military/defense satellites.

Loading next visibility...
Identifier
41898, 2016-081A
Orbit
SSO
Country
Flag of CNCN / PRC
Related business
Manufacturer
SECM
Mission
Operational Civil Science
Bus & Motor
TANSAT, Unknown motor
Mass
~620 kg wet, ~600 kg dry
Launch date (UTC)
2016-12-21 (9 years ago)
Launch vehicle
CHANG ZHENG 2D
Launch site
Jiuquan Satellite Launch Center, China (JSC)
Object type
Payload
Rocket body
Debris
Shape & HBR
Box + 2 Pan, 5.0 m
Radar Cross Section
7.261 m², Large (>1 m²)

Expand to show TLE details & history
Last TLE update: 16 hours ago

TLE from 16 hours ago
0 TANSAT
1 41898U 16081A   25259.62992870  .00000362  00000-0  86305-4 0  9999
2 41898  98.5210 247.0936 0021912  74.9133 285.4488 14.59659246464712
Epoch: 2025-09-16T15:07Z
TLE epoch observation values (Epoch: 2025-09-16T15:07:05.839Z)
Latitude
-0.00006°
Longitude
24.5018°
Altitude
693.152 km
Speed
7.512 km/s
True Right ascension
16h 28m 22s
True Declination
0° 00' 00"
Sunlit
Object was in daylight at epoch
Visualization orbit readout
Latitude
Unknown
Longitude
Unknown
Altitude
Unknown
Speed
Unknown
Apparent Right ascension
Unknown
Apparent Declination
Unknown
Sunlit
N/A
Visualization observer readout
Local Sidereal Time
23:49:41
Azimuth
Unknown
Elevation
Unknown
Doppler factor
Unknown
Orbital elements
Apogee altitude
706.862 km
Perigee altitude
675.88 km
Semi-major axis
7,069.508 km
Eccentricity
0.00219
Inclination
98.521°
RAAN
247.0936°
Arg. of periapsis
74.9133°
True anomaly
285.2066°
Mean anomaly
285.4488°
Eccentric anomaly
285.32772°
Mean motion
3.6514 °/min
Orbital period
98.59 mins
BSTAR
0.000086305
Loading maneuver chart data...
Computing Atmospheric mass density...
Loading historical data...
Loading historical data...
Loading historical data...
Loading historical data...
Loading historical data...
Loading historical data...
Loading historical data...
Other satellites on launch #81 in the year 2016 (2016-12-21 UTC)

Documentation

Showing up to 5 results
|